Regional Weather Roundup
Issued by NWS Midland/Odessa, TX

Skip options and go directly to product.
Home | Oldest Version | Previous Version | Current Version | All | Text Only | Save Text | Print | Product List | Glossary Off

Skip product version selection by date and time.   

221
ASUS44 KMAF 030310
RWRMAF
MIDLAND AREA WEATHER ROUNDUP
NATIONAL WEATHER SERVICE MIDLAND TX
1000 PM CDT MON MAY 02 2016

...IN SOUTHWEST TEXAS AND SOUTHEAST NEW MEXICO...

CITY           SKY/WX    TMP DP  RH WIND       PRES   REMARKS
ALPINE         CLEAR     56  35  45 NE5       30.21R
ANDREWS        FAIR      58  34  40 CALM      30.14R
ARTESIA        CLEAR     57  32  38 S7        30.12S
BIG SPRING     CLEAR     55  36  49 E7        30.16R
CARLSBAD       CLEAR     53  31  42 SW7       30.11R
DRYDEN           N/A     63  41  44 E8        30.09R
FORT STOCKTON  CLEAR     60  40  47 SE5       30.12R
GUAD PASS      CLEAR     51  32  48 NE25      30.18R
HOBBS          CLEAR     54  32  43 SE6       30.15R
MARFA          CLEAR     53  35  50 NE10      30.17R
MIDLAND AIRPK  CLEAR     64  36  35 E7        30.14R
MIDLAND INTL   CLEAR     61  36  39 E7        30.13R
ODESSA         CLEAR     60  34  37 E7        30.13R
PECOS          CLEAR     62  35  36 E5        30.11R
PRESIDIO       FAIR      69  39  33 E15       30.06R
SEMINOLE       CLEAR     57  33  41 SE5       30.15R
SNYDER           N/A     59  40  48 E6        30.14R
WINK           CLEAR     59  34  39 NE7       30.10R
$$
...OTHER STATIONS IN TEXAS...

CITY           SKY/WX    TMP DP  RH WIND       PRES   REMARKS
ABILENE        CLEAR     56  47  71 E5        30.14R
AMARILLO       CLEAR     51  38  60 SE6       30.15R
AUSTIN         PTCLDY    58  51  78 N7        30.10R
BROWNSVILLE    CLOUDY    72  60  66 N6        30.03R
CORPUS CHRISTI CLOUDY    67  54  63 N15       30.05R
DALLAS FTW     CLEAR     56  46  69 NE5       30.11R
DEL RIO        CLEAR     63  52  67 E5        30.10R
EL PASO        PTCLDY    67  30  25 E8        30.08R
HOUSTON INT    PTCLDY    63  57  81 N9        30.03R
LUBBOCK        CLEAR     55  31  39 E8        30.13R
SAN ANGELO     CLEAR     56  45  66 E5        30.13R
SAN ANTONIO    CLOUDY    60  50  69 N7        30.10R
WACO           MOCLDY    56  53  90 CALM      30.11R
WICHITA FALLS  NOT AVBL
$$
...OTHER LOCATIONS IN NEW MEXICO...

CITY           SKY/WX    TMP DP  RH WIND       PRES   REMARKS
ALAMAGORDO     CLEAR     59  27  29 CALM      30.11R
ALBUQUERQUE    MOCLDY    60  28  29 SW6       30.16R
CANNON AFB     CLEAR     55  34  44 SW2       30.15R
CLOVIS         CLEAR     52  36  54 SE5       30.16R
HOLLOMAN AFB   CLEAR     65  28  25 SE3       30.09R
ROSWELL        CLEAR     54  32  43 S5        30.11R
RUIDOSO          N/A     46  32  57 SE8       30.24R
SANTA FE       CLOUDY    50  29  44 W3        30.17R
TRUTH OR CONSE CLEAR     63  25  23 S5        30.10R
TUCUMCARI      CLEAR     50  39  66 E8        30.11R
$$

USA.gov is the U.S. government's official web portal to all federal, state and local government web resources and services.